Total_Precipitation_Accumulation
0.02 0.07 0.24 0.43 0.82 1.35 1.39 0.89 0.73 0.50 0.40 0.40 0.32 0.30 0.38 0.58 0.82 1.20 0.77 0.52 0.34 0.32 0.41 0.52 0.56 0.52 0.54 0.60 0.73 0.81 0.87 1.00 1.06 1.08 1.16 1.20 1.23 1.20 1.09 1.05 1.01 1.00 0.93 0.82 0.72 0.70 0.73 0.65 0.61
0.03 0.08 0.24 0.46 1.03 1.60 1.31 0.66 0.47 0.37 0.33 0.37 0.35 0.35 0.51 0.54 0.43 0.53 0.51 0.42 0.26 0.25 0.31 0.32 0.39 0.40 0.41 0.48 0.58 0.69 0.72 0.75 0.80 0.94 1.04 1.06 1.10 1.06 0.98 0.91 0.89 0.87 0.84 0.76 0.63 0.62 0.59 0.51 0.49
0.03 0.08 0.24 0.50 0.92 1.16 0.93 0.54 0.36 0.29 0.35 0.48 0.51 0.42 0.60 0.58 0.45 0.49 0.42 0.24 0.17 0.19 0.26 0.29 0.32 0.32 0.32 0.36 0.46 0.60 0.65 0.66 0.74 0.83 0.87 0.91 0.92 0.92 0.87 0.85 0.87 0.84 0.78 0.72 0.59 0.50 0.44 0.39 0.36
0.02 0.11 0.22 0.42 0.56 0.53 0.50 0.40 0.31 0.31 0.34 0.46 0.56 0.56 0.64 0.47 0.33 0.33 0.28 0.15 0.09 0.16 0.23 0.23 0.25 0.25 0.29 0.32 0.42 0.53 0.59 0.66 0.73 0.75 0.78 0.86 0.93 0.93 0.82 0.82 0.80 0.78 0.74 0.63 0.54 0.44 0.36 0.35 0.34
0.04 0.10 0.21 0.39 0.47 0.44 0.37 0.35 0.32 0.40 0.44 0.52 0.57 0.77 0.78 0.55 0.37 0.27 0.24 0.16 0.07 0.12 0.17 0.18 0.22 0.22 0.25 0.31 0.44 0.56 0.63 0.68 0.64 0.69 0.83 0.91 0.95 0.92 0.85 0.79 0.71 0.67 0.59 0.50 0.51 0.46 0.42 0.39 0.37
0.03 0.06 0.16 0.29 0.37 0.39 0.34 0.29 0.25 0.34 0.49 0.65 0.71 0.82 0.88 0.70 0.50 0.36 0.25 0.20 0.15 0.11 0.17 0.22 0.24 0.23 0.24 0.28 0.37 0.49 0.54 0.59 0.63 0.72 0.79 0.79 0.79 0.77 0.75 0.70 0.68 0.62 0.56 0.51 0.48 0.44 0.44 0.47 0.47
0.02 0.05 0.10 0.20 0.29 0.28 0.26 0.29 0.25 0.29 0.48 0.67 0.70 0.94 1.03 0.92 0.66 0.45 0.36 0.36 0.36 0.23 0.21 0.26 0.31 0.31 0.31 0.36 0.44 0.53 0.57 0.65 0.71 0.74 0.74 0.72 0.71 0.69 0.67 0.65 0.65 0.61 0.56 0.49 0.48 0.43 0.42 0.45 0.48
0.02 0.04 0.06 0.11 0.18 0.25 0.21 0.23 0.25 0.32 0.36 0.47 0.57 0.82 1.07 0.95 0.68 0.65 0.76 0.73 0.79 0.56 0.39 0.37 0.45 0.55 0.49 0.45 0.52 0.59 0.61 0.64 0.70 0.74 0.77 0.82 0.81 0.74 0.71 0.65 0.66 0.64 0.61 0.57 0.56 0.51 0.48 0.51 0.51
0.01 0.03 0.05 0.07 0.11 0.16 0.14 0.21 0.23 0.21 0.26 0.34 0.47 0.65 0.86 0.81 0.74 0.94 1.21 1.08 1.07 0.87 0.61 0.47 0.44 0.57 0.66 0.61 0.58 0.67 0.70 0.72 0.80 0.93 0.96 1.06 1.18 1.07 1.07 0.85 0.87 0.89 0.88 0.87 0.85 0.78 0.71 0.64 0.60
0.01 0.04 0.04 0.04 0.05 0.08 0.12 0.18 0.20 0.24 0.44 0.68 0.79 0.85 0.94 1.16 1.14 1.23 1.31 1.20 1.14 1.07 0.82 0.66 0.58 0.56 0.64 0.66 0.83 1.05 1.00 1.04 1.20 1.44 1.44 1.62 1.70 1.61 1.12 1.09 1.31 1.47 1.51 1.43 1.44 1.38 1.15 0.98 0.95
0.00 0.03 0.03 0.02 0.03 0.05 0.09 0.11 0.16 0.26 0.61 0.95 1.15 1.20 1.23 1.44 1.62 1.67 1.71 1.67 1.53 1.40 1.06 0.83 0.78 0.80 0.79 0.94 0.94 1.12 1.33 1.53 1.60 1.61 1.65 1.82 1.71 1.46 1.22 1.29 1.47 1.62 1.72 1.84 2.09 2.11 1.80 1.78 1.86
0.00 0.01 0.02 0.02 0.02 0.03 0.06 0.08 0.17 0.39 0.77 0.92 1.10 1.22 1.26 1.66 1.77 1.77 2.17 2.22 1.80 1.51 1.37 1.21 1.11 1.11 1.17 1.08 1.19 1.21 1.25 1.40 1.57 1.68 1.67 1.79 1.96 1.86 1.72 1.81 1.80 1.94 2.11 2.50 2.46 2.62 2.47 2.24 1.97
0.00 0.00 0.00 0.01 0.01 0.02 0.04 0.09 0.17 0.37 0.58 0.67 0.85 0.97 1.03 1.57 1.88 2.10 2.58 2.52 2.21 1.96 1.77 1.57 1.57 1.63 1.59 1.55 1.57 1.43 1.43 1.51 1.61 1.72 1.85 1.92 2.00 2.01 2.01 2.10 2.16 1.90 2.02 2.32 2.58 2.49 2.64 2.67 2.45
0.00 0.01 0.01 0.01 0.02 0.03 0.04 0.11 0.22 0.42 0.55 0.77 0.78 0.93 1.14 1.53 1.82 2.23 2.56 2.80 2.63 2.31 2.04 1.88 1.85 1.95 2.03 1.97 2.00 1.93 1.68 1.76 1.72 1.89 1.95 2.04 2.10 2.20 2.33 2.35 2.33 2.05 2.03 2.29 2.49 2.40 2.74 2.68 2.63
0.01 0.02 0.04 0.03 0.04 0.05 0.07 0.24 0.44 0.55 0.69 0.85 0.98 1.07 1.28 1.62 2.11 2.38 2.65 2.94 2.93 2.78 2.57 2.34 2.21 2.37 2.60 2.68 2.58 2.38 2.15 1.96 1.96 2.04 2.07 2.14 2.14 2.34 2.34 2.28 2.29 2.25 2.14 2.36 2.47 2.51 2.67 2.52 2.41
0.01 0.03 0.10 0.10 0.07 0.08 0.14 0.53 0.64 0.53 0.76 0.96 1.05 1.28 1.58 1.96 2.39 2.88 3.04 2.90 2.91 3.01 2.94 2.62 2.39 2.83 3.18 3.22 3.13 2.87 2.55 2.26 2.12 2.15 2.14 2.24 2.27 2.37 2.53 2.32 2.22 2.42 2.38 2.54 2.83 2.81 2.93 3.01 2.90
0.02 0.06 0.10 0.15 0.10 0.10 0.24 0.70 0.65 0.48 0.63 0.83 1.06 1.31 1.73 2.24 2.60 2.76 2.81 2.95 3.08 3.16 3.12 2.99 3.04 3.16 3.30 3.41 3.47 3.21 2.94 2.65 2.36 2.20 2.14 2.19 2.27 2.46 2.81 2.66 2.64 2.62 2.64 2.68 2.40 2.99 3.30 3.32 3.18
0.02 0.05 0.10 0.15 0.13 0.16 0.27 0.53 0.61 0.54 0.68 0.88 1.21 1.43 1.58 1.96 2.41 2.51 2.62 3.07 3.14 3.31 3.41 3.29 3.38 3.51 3.78 4.00 4.15 3.72 3.29 2.95 2.64 2.41 2.38 2.43 2.59 2.72 2.99 2.81 2.76 2.72 2.88 2.86 2.90 3.33 3.33 3.07 3.08
0.02 0.05 0.12 0.15 0.14 0.21 0.31 0.52 0.71 0.72 0.88 1.25 1.46 1.46 1.45 1.74 2.23 2.59 2.84 3.02 3.35 3.52 3.65 3.62 3.81 4.16 4.48 4.34 4.00 3.76 3.45 3.20 2.96 2.70 2.53 2.55 2.51 2.66 2.98 2.85 3.06 2.97 2.86 2.85 2.88 3.16 3.23 2.94 3.11
0.02 0.06 0.14 0.16 0.16 0.26 0.40 0.63 0.80 0.93 1.18 1.32 1.24 1.25 1.41 1.79 2.28 2.65 2.93 3.08 3.33 3.59 3.98 4.07 4.21 4.53 4.63 4.47 4.36 4.16 3.98 3.55 3.39 3.22 2.99 2.64 2.45 2.52 2.62 2.97 2.80 2.81 2.88 2.82 2.94 3.18 3.05 2.66 3.06
0.04 0.07 0.13 0.14 0.21 0.36 0.46 0.86 1.05 1.17 1.33 1.32 1.26 1.47 1.49 1.58 2.00 2.28 2.41 2.60 2.78 2.91 3.14 3.40 3.85 4.33 4.45 4.51 4.43 4.35 4.32 3.79 3.50 3.32 3.08 2.74 2.48 2.41 2.55 2.71 2.76 2.74 2.65 2.72 2.92 2.97 2.98 2.82 2.88
0.06 0.06 0.06 0.10 0.19 0.46 0.53 1.09 1.32 1.53 1.60 1.43 1.40 1.36 1.34 1.58 1.91 1.93 1.80 1.95 2.21 2.20 2.51 2.89 3.32 3.65 3.85 3.95 3.92 3.90 3.79 3.57 3.49 3.38 2.96 2.71 2.46 2.37 2.42 2.48 2.54 2.57 2.43 2.52 2.37 2.48 2.89 2.99 2.73
0.05 0.05 0.07 0.11 0.19 0.41 0.48 0.82 1.33 1.72 1.85 1.47 1.37 1.28 1.35 1.58 1.63 1.59 1.62 1.72 1.89 2.06 2.38 2.68 2.97 3.24 3.39 3.46 3.50 3.55 3.39 3.28 3.24 3.10 2.83 2.56 2.36 2.21 2.04 2.12 2.35 2.40 2.27 2.21 2.23 2.43 2.55 2.57 2.52
0.04 0.07 0.14 0.20 0.37 0.71 0.62 0.74 1.25 1.66 1.50 1.29 1.23 1.05 1.16 1.36 1.45 1.51 1.60 1.72 1.86 2.16 2.51 2.79 2.99 3.19 3.24 3.02 2.91 2.89 2.90 2.94 2.87 2.68 2.46 2.20 2.07 1.95 1.80 1.88 2.10 2.13 2.12 2.10 2.07 2.14 2.23 2.28 2.34
0.08 0.17 0.56 0.93 1.24 1.14 0.72 0.83 1.42 1.31 0.96 0.89 0.99 0.97 0.97 1.04 1.18 1.31 1.50 1.71 1.88 1.99 2.09 2.51 2.91 3.06 2.96 2.70 2.52 2.42 2.50 2.58 2.50 2.34 2.25 2.12 1.90 1.75 1.72 1.76 1.84 1.83 1.88 1.88 1.95 1.99 2.04 2.18 2.28
0.13 0.24 0.70 0.96 1.01 0.99 0.80 1.20 1.68 1.29 0.87 0.71 0.81 0.83 0.74 0.69 0.67 0.76 0.94 1.06 1.16 1.18 1.24 1.40 1.66 1.92 2.01 1.89 1.86 1.90 1.94 1.98 1.97 2.10 1.96 1.92 1.79 1.63 1.64 1.59 1.56 1.60 1.63 1.65 1.91 1.93 2.02 2.15 2.21
0.24 0.28 0.30 0.50 0.69 1.04 1.04 1.22 1.30 1.06 0.84 0.78 0.88 0.81 0.65 0.60 0.57 0.63 0.73 0.74 0.84 0.88 0.95 1.08 1.30 1.52 1.54 1.52 1.52 1.56 1.59 1.61 1.65 1.71 1.63 1.60 1.63 1.53 1.53 1.55 1.62 1.57 1.58 1.67 1.82 1.83 1.83 2.01 2.05
0.20 0.28 0.43 0.68 0.91 1.06 1.12 1.40 1.57 1.39 1.15 1.00 0.95 0.82 0.63 0.53 0.52 0.59 0.68 0.68 0.78 0.95 1.10 1.23 1.33 1.40 1.38 1.36 1.34 1.27 1.38 1.39 1.45 1.42 1.35 1.34 1.41 1.40 1.37 1.40 1.45 1.48 1.47 1.52 1.69 1.71 1.76 1.90 1.94
0.23 0.30 0.46 0.64 0.70 0.90 1.25 1.35 1.10 1.04 1.04 1.09 1.10 0.92 0.66 0.53 0.48 0.54 0.65 0.71 0.79 0.91 1.04 1.17 1.27 1.35 1.30 1.25 1.31 1.36 1.37 1.37 1.36 1.31 1.24 1.29 1.35 1.35 1.30 1.32 1.40 1.43 1.45 1.54 1.63 1.58 1.68 1.72 1.75
0.22 0.32 0.48 0.71 0.77 0.81 0.96 1.06 0.67 0.66 0.76 0.86 0.89 0.72 0.54 0.48 0.48 0.55 0.64 0.67 0.79 0.89 0.94 0.95 1.04 1.21 1.23 1.23 1.36 1.55 1.50 1.46 1.38 1.26 1.19 1.23 1.26 1.27 1.27 1.33 1.38 1.34 1.41 1.56 1.62 1.58 1.64 1.70 1.68